This is the latest recevied weather packets stored in our database for station/object RN1M-13. If no packets are shown the sender has not sent any weather packets the latest 10 day(s).
| Time | Temp. | Humidity | Pressure | Rain* | Wind** | Luminosity | Snow |
|---|---|---|---|---|---|---|---|
| 1787649748 | 16.67° C | 100% | 1017.5 hPa | - | - | - | - |
| 1787648848 | 17.22° C | 100% | 1017.8 hPa | - | - | - | - |
| 1787647049 | 16.11° C | 100% | 1018 hPa | - | - | - | - |
| 1787646149 | 16.11° C | 100% | 1018 hPa | - | - | - | - |
| 1787644349 | 16.11° C | 100% | 1017.6 hPa | - | - | - | - |
| 1787643449 | 16.11° C | 100% | 1017.6 hPa | - | - | - | - |
| 1787642549 | 16.11° C | 100% | 1017.7 hPa | - | - | - | - |
| 1787641649 | 15.56° C | 100% | 1017.7 hPa | - | - | - | - |
| 1787640749 | 15.56° C | 100% | 1017.8 hPa | - | - | - | - |
| 1787639849 | 16.11° C | 100% | 1017.8 hPa | - | - | - | - |
| 1787638949 | 15.56° C | 100% | 1018.2 hPa | - | - | - | - |
| 1787638049 | 15.56° C | 100% | 1018 hPa | - | - | - | - |
| 1787637151 | 15° C | 100% | 1017.9 hPa | - | - | - | - |
| 1787636250 | 15.56° C | 100% | 1018.5 hPa | - | - | - | - |
| 1787635350 | 15° C | 100% | 1018.6 hPa | - | - | - | - |
| 1787634450 | 15° C | 100% | 1018.6 hPa | - | - | - | - |
| 1787633550 | 15° C | 100% | 1018.9 hPa | - | - | - | - |
| 1787632650 | 15° C | 100% | 1019 hPa | - | - | - | - |
| 1787631750 | 15° C | 100% | 1018.7 hPa | - | - | - | - |
| 1787630850 | 15° C | 100% | 1018.5 hPa | - | - | - | - |
| 1787629950 | 15° C | 100% | 1018.3 hPa | - | - | - | - |
| 1787629049 | 15° C | 100% | 1018.1 hPa | - | - | - | - |
| 1787628149 | 15° C | 100% | 1017.6 hPa | - | - | - | - |
| 1787627249 | 15.56° C | 100% | 1017.4 hPa | - | - | - | - |
| 1787626351 | 15° C | 100% | 1016.4 hPa | - | - | - | - |
* Rain since midnight (hover to see other rain measurements)
** Current wind speed in m/s (hover to see current wind gust speed)